Location: *
(51.4660°N, 0.3360°W)
Time: 07:08:14
(UTC+00:00)

Cosmos 1825 Rocket - Pass Details

Date: 19 September 2019
Orbit: 603 x 632 km, 82.5° (Epoch: 17 October)

Event Time Altitude Azimuth Distance (km) Brightness Sun altitude
Rises 20:53:22 0° 351° (N) 2,881 7.7 -24.8°
Reaches altitude 10° 20:55:38 10° 356° (N) 1,969 6.7 -25.0°
Enters shadow 20:58:51 45° 21° (NNE) 835 4.2 -25.4°
